Regional Weather Roundup
Issued by NWS

Home | Current Version | Previous Version | Text Only | Print | Product List | Glossary Off
Versions: 1 2 3 4 5 6 7 8 9 10 11 12 13 14 15 16 17 18 19 20 21 22 23 24 25 26 27

000
ASUS45 KTFX 291310
RWRMT
MONTANA REGIONAL WEATHER ROUNDUP
NATIONAL WEATHER SERVICE GREAT FALLS MT
700 AM MDT THU SEP 29 2016

NOTE: "FAIR" INDICATES FEW OR NO CLOUDS BELOW 12000 FEET WITH NO
SIGNIFICANT WEATHER AND/OR OBSTRUCTIONS TO VISIBILITY.

MTZ001>007-043-291400-
WEST OF THE DIVIDE

CITY           SKY/WX    TMP DP  RH WIND       PRES   REMARKS
KALISPELL      CLEAR     43  41  93 NW6       30.04R
MISSOULA       CLEAR     47  44  90 CALM      30.07R
BUTTE          CLEAR     38  35  89 CALM      30.21S
MULLAN PASS    MOCLDY    58  37  45 S6        30.12F
ANACONDA         N/A     46  34  61 S6        30.16S
DEER LODGE       N/A     45  36  70 CALM      30.16F
EUREKA           N/A     45  41  87 CALM      30.07S
HAMILTON         N/A     48  37  66 SE6       30.07S
LIBBY            N/A     45  43  93 CALM      30.04S
RONAN            N/A     42  39  89 CALM      30.08R
THOMPSON FALLS   N/A     42  40  93 CALM      30.07
$$

MTZ008-052>055-291400-
SOUTHWEST MONTANA

CITY           SKY/WX    TMP DP  RH WIND       PRES   REMARKS
BOZEMAN        CLEAR     43  40  89 S7        30.19S
DILLON         CLEAR     42  35  76 SW8       30.20S
W YELLOWSTONE    N/A     32  32 100 CALM      30.33S
ENNIS          CLOUDY    48  39  71 N3        30.26R
THREE FORKS      N/A     40  21  46 CALM      30.15S
TWIN BRIDGES     N/A     40  34  79 E2        30.16S
$$

MTZ009-010-012-014-046-048-049-054-291400-
EAST SLOPES AND CENTRAL MONTANA

CITY           SKY/WX    TMP DP  RH WIND       PRES   REMARKS
CUT BANK       CLEAR     36  35  96 N6        30.10F WCI  31
GREAT FALLS    CLEAR     41  39  93 NW3       30.09F
HELENA         CLEAR     45  41  86 CALM      30.16R
AUGUSTA          N/A     46  42  86 SW1       30.10F
BOWMANS CRNR     N/A     47  42  81 SW9       30.08F
CHOTEAU          N/A     45  43  93 SW5       30.11S
CONRAD           N/A     36  36 100 CALM      30.10F
FAIRFIELD        N/A     45  42  89 CALM      30.09F
POWER            N/A     40  38  94 W6        30.08F
RAYNESFORD       N/A     46  41  84 SE2       30.11F
$$

MTZ011-013-016-021-045-047-050-051-291400-
NORTH CENTRAL MONTANA

CITY           SKY/WX    TMP DP  RH WIND       PRES   REMARKS
HAVRE          CLEAR     40  40 100 MISG      30.10R
LEWISTOWN      CLEAR     44  41  89 SE7       30.12S
N BAR RANCH      N/A     57  41  54 NW3       30.16R
CHINOOK          N/A     43  43 100 CALM      30.09S VSB 1/2
DENTON           N/A     45  42  89 S7        30.07F
GEYSER           N/A     46  42  86 SW1       30.10F
GRASS RANGE      N/A     47  44  88 W7        30.08S
JUDITH GAP       N/A     47  44  88 S12       30.16S
ROY              N/A     51  46  83 MISG      30.09S
STANFORD         N/A     50  41  69 W2        30.12S
WINIFRED         N/A     55  47  74 MISG      30.10S
$$

MTZ017>020-022>027-061-062-291400-
NORTHEAST MONTANA

CITY           SKY/WX    TMP DP  RH WIND       PRES   REMARKS
GLASGOW        CLEAR     53  45  74 SE9       30.11F
JORDAN           N/A     56  46  69 SE5       30.12S
SIDNEY         CLEAR     46  39  76 CALM      30.23F
WOLF POINT     CLEAR     51  41  68 NE9       30.17S
PLENTYWOOD       N/A     52  37  58 SE12      30.21F
POPLAR           N/A     52  39  62 E8        30.18F
SCOBEY           N/A     52  36  54 SE8       30.15S
$$

MTZ028>42-056>058-291400-
SOUTHCENTRAL AND SOUTHEAST MONTANA

CITY           SKY/WX    TMP DP  RH WIND       PRES   REMARKS
BAKER          CLEAR     48  39  71 SE15      30.25F
BILLINGS       PTCLDY    49  47  93 SW8       30.14S
LIVINGSTON     CLOUDY    42  40  92 CALM      30.19S
MILES CITY     CLEAR     58  42  55 SE20G30   30.14F
BIG TIMBER     CLEAR     45  45 100 W3        30.20S
EKALAKA          N/A     55  37  50 SE12      30.19
FORSYTH          N/A     52  48  87 E6        30.12S
HARLOWTON        N/A     44  41  91 NW13      30.16F
LAUREL           N/A     47  43  86 CALM      30.13R
ROUNDUP          N/A     49  43  80 S12       30.04R
$$

REGIONAL REPORTS...DAKOTAS

CITY           SKY/WX    TMP DP  RH WIND       PRES   REMARKS
WILLISTON      CLEAR     52  42  69 SE9       30.25F
MINOT          CLEAR     46  43  89 SE9       30.35S
DICKINSON      CLEAR     41  39  93 SE13      30.28S
BEACH            N/A     48  39  71 SE15G23   30.27S
CROSBY           N/A     50  46  87 S9        30.27S
WATFORD CITY     N/A     45  41  87 E6        30.28S FOG
BISMARCK       CLEAR     39  39 100 NE6       30.40R
GRAND FORKS    CLOUDY    50  46  86 SE5       30.46S
FARGO          CLOUDY    50  47  89 E3        30.47S
BUFFALO SD       N/A     46  41  82 S8        30.23S
RAPID CITY     CLEAR     39  33  79 SE8       30.31S
$$

REGIONAL REPORTS...WYOMING/IDAHO/WASHINGTON

CITY           SKY/WX    TMP DP  RH WIND       PRES   REMARKS
GILLETTE       CLEAR     52  42  69 VRB3      30.25S
SHERIDAN       CLEAR     45  39  79 CALM      30.18S
BUFFALO WY     CLEAR     52  38  58 S6        30.24S
CODY           MOCLDY    49  41  74 N3        30.23S
YELLOWSTONE LA   N/A     33  33 100 CALM      30.41S
IDAHO FALLS    CLOUDY    53  48  83 CALM      30.21R
SALMON         CLOUDY    39  36  87 N5        30.16S
BOISE          PTCLDY    71  40  32 SE9       29.95R
SPOKANE        MOCLDY    54  42  64 NE3       29.97R
$$

REGIONAL REPORTS...ALBERTA

CITY           SKY/WX    TMP DP  RH WIND       PRES   REMARKS
EDMONTON       PTCLDY    32  30  93 SE2       30.20S
CALGARY        PTCLDY    39  36  87 CALM      30.14S
LETHBRIDGE     MOCLDY    37  37 100 S8        30.12S WCI  31
MEDICINE HAT   PTCLDY    41  37  87 N5        30.10S
WATERTON GATE    N/A     32  30  93 NE1         N/A
MILK RIVER       N/A     37  36  93 NW7         N/A
$$

REGIONAL REPORTS...SASKATCHEWAN

CITY           SKY/WX    TMP DP  RH WIND       PRES   REMARKS
SWIFT CURRENT  CLEAR     43  41  93 SE6       30.11F
REGINA         PTCLDY    50  43  76 SE15      30.21F
SASKATOON      MOCLDY    45  45 100 NE8       30.20F
CYPRESS HILLS    N/A     50  45  81 SE3         N/A
VAL MARIE        N/A     45  43  93 N2          N/A
ROCKGLEN         N/A     50  41  71 SE14        N/A
ASSINIBOIA       N/A     34  32  93 NE2         N/A
$$




USA.gov is the U.S. government's official web portal to all federal, state and local government web resources and services.